Regional Weather Roundup
Issued by NWS Upton, NY

Current Version | Previous Version | Text Only | Print | Product List | Glossary On
Versions: 1 2 3 4 5 6 7 8 9 10 11 12 13 14 15 16 17 18 19 20 21 22 23 24 25 26 27 28 29 30 31 32 33 34 35 36 37 38 39 40 41 42 43 44 45 46 47 48 49 50
000
ASUS41 KOKX 021808
RWROKX

REGIONAL WEATHER ROUNDUP
NATIONAL WEATHER SERVICE NEW YORK NY
200 PM EDT THU JUL 02 2015

NOTE: "FAIR" INDICATES FEW OR NO CLOUDS BELOW 12,000 FEET WITH NO
SIGNIFICANT WEATHER AND/OR OBSTRUCTIONS TO VISIBILITY.

NYZ071-072-176-178-NJZ106-104-021900-
NEW YORK CITY METRO AREA


CITY           SKY/WX    TMP DP  RH WIND       PRES   REMARKS
CENTRAL PARK   CLOUDY    79  58  48 CALM      29.92S
LAGUARDIA APRT CLOUDY    81  56  42 NE6       29.89S
KENNEDY INTL   CLOUDY    78  59  51 S7        29.91S
NEWARK/LIBERTY CLOUDY    81  59  47 SW3       29.89S
BRNX BOT. GARD   N/A     77  57  50 N2        29.89F
TETERBORO      CLOUDY    80  54  40 CALM      29.88S
$$

NYZ177-179-078>081-021900-
LONG ISLAND NEW YORK

CITY           SKY/WX    TMP DP  RH WIND       PRES   REMARKS
FARMINGDALE    CLOUDY    77  62  59 S8        29.90S
ISLIP          CLOUDY    76  60  57 SE5       29.88F
SHIRLEY        CLOUDY    75  62  64 S7        29.90F
WESTHAMPTON    CLOUDY    74  59  59 SE6       29.92S
MONTAUK POINT    N/A     75  56  51 N5        29.91F
$$

NYZ052-065-067-021900-
HUDSON VALLEY

CITY           SKY/WX    TMP DP  RH WIND       PRES   REMARKS
WHITE PLAINS   CLOUDY    76  60  57 SE10      29.90S
NEWBURGH       MOSUNNY   75  59  57 CALM      29.92S
MONTGOMERY     MOSUNNY   77  59  53 VRB7      29.90S
POUGHKEEPSIE   MOSUNNY   77  57  50 VRB3      29.89F
ALBANY         MOSUNNY   75  54  47 NW9       29.90F
$$

NJZ001-105-106-008-010-013-015-019>022-104-021900-
NEW JERSEY

CITY           SKY/WX    TMP DP  RH WIND       PRES   REMARKS
NEWARK/LIBERTY CLOUDY    81  59  47 SW3       29.89S
TETERBORO      CLOUDY    80  54  40 CALM      29.88S
CALDWELL       CLOUDY    78  57  48 VRB3      29.90S
MORRISTOWN     CLOUDY    81  61  50 CALM      29.90S
SOMERVILLE     CLOUDY    78  61  55 CALM      29.88S
SUSSEX         PTSUNNY   76  58  53 N6        29.92S
ANDOVER          N/A     75  59  57 CALM      29.92S
TRENTON        CLOUDY    75  61  61 S6        29.90S
MILLVILLE      CLOUDY    68  65  90 E6        29.90R FOG
ATLANTIC CITY  RAIN      68  65  90 E7        29.89F FOG
WRIGHTSTOWN    CLOUDY    73  65  76 E7        29.88F
TOMS RIVER     CLOUDY    70  64  83 CALM      29.91F
BELMAR         CLOUDY    72  59  64 SE6       29.91F
$$

PAZ047>061-062-071-021900-
EASTERN PENNSYLVANIA

CITY           SKY/WX    TMP DP  RH WIND       PRES   REMARKS
PHILADELPHIA   CLOUDY    73  63  70 NE3       29.90F
ALLENTOWN      CLOUDY    79  58  48 CALM      29.90F
SCRANTON       PTSUNNY   77  57  50 NE5       29.93S
$$

CTZ002-004>006-009-010-012-RIZ004-006-007-MAZ004-011-015-021900-
SOUTHERN NEW ENGLAND
 IN CT

CITY           SKY/WX    TMP DP  RH WIND       PRES   REMARKS
BRADLEY INTL   PTSUNNY   77  54  44 VRB3      29.89S
HARTFORD       MOSUNNY   78  56  46 VRB5      29.89S
DANBURY        PTSUNNY   75  56  51 S6        29.92R
WTRBRY/OXFORD  NOT AVBL
BRIDGEPORT     CLOUDY    74  60  61 S9        29.90S
MERIDEN        PTSUNNY   78  58  49 N7        29.90S
NEW HAVEN      CLOUDY    74  60  61 S9        29.90S
CHESTER        FAIR      75  61  60 S8        29.91S
GROTON         PTSUNNY   73  60  63 SW8       29.89S
WILLIMANTIC    MOSUNNY   77  58  51 NW5       29.90S

 IN RI

CITY           SKY/WX    TMP DP  RH WIND       PRES   REMARKS
PROVIDENCE     PTSUNNY   77  61  57 SE9       29.89S
BLOCK ISLAND   PTSUNNY   75  61  60 CALM      29.90S
WESTERLY       MOSUNNY   75  59  57 S8        29.90S

 IN MA

CITY           SKY/WX    TMP DP  RH WIND       PRES   REMARKS
BOSTON         MOSUNNY   78  56  46 W6        29.87S
WORCESTER      MOSUNNY   73  54  51 W6        29.91F
WESTFIELD      NOT AVBL
PROVINCETOWN   SUNNY     82  21  10 S9        29.88S
NANTUCKET      SUNNY     76  60  57 S6        29.90S
$$

ANZ330-335-338-340-345-350-353-355-021900-
COASTAL MARINE OBSERVATIONS


STATION/POSITION TIME  SKY/WX   TEMP    WIND        PRES    VSBY  WAVE
                                AIR SEA DIR/SP/G                  HT/PER
                 (UTC)          (F)     (DEG/KT/KT) (MB)    (MI)  (FT/S)
NY HARB ENTRANCE 1750            70 70  140/  6/  8 1012.6          3/ 7
4S FIRE IS       1703               71                N/A           4/ 7
20S FIRE ISLAND  1750            68 68  340/  2/  4 1012.9          4/ 8
GREAT SOUTH BAY  1730            72 76  170/  6/  8   N/A
23SW MTP         1750            68 68   20/  2/  4 1012.3          4/ 8
HUDSON CANYON    NOT AVBL
KINGS POINT      1700            75 65  250/  2/  3 1011.8
CENTRAL LI SOUND NOT AVBL
EASTERN LI SOUND 1700            69 66  200/  4/  4   N/A
ROBBINS REEF     1700            75     140/  3/  4 1011.2
$$


>>>>>>>>>>>>>>>>>>>>>>>>>>>> KEY <<<<<<<<<<<<<<<<<<<<<<<<<<<
>                                                          <
>     SKY/WX - SKY CONDITION/PRESENT WEATHER               <
>     TMP    - TEMPERATURE IN FAHRENHEIT                   <
>     DP     - DEWPOINT IN FAHRENHEIT                      <
>     RH     - RELATIVE HUMIDITY IN PERCENT                <
>     WIND   - DIRECTION AND SPEED IN MPH                  <
>     PRES   - MEAN SEA LEVEL PRESSURE IN INCHES OF HG     <
>     WCI    - WIND CHILL INDEX                            <
>     VSB    - VISIBILITY IN MILES                         <
>     HX     - HEAT INDEX                                  <
>     TC     - TEMPERATURE IN CELSIUS                      <
>     VRB    - VARIABLE WIND DIRECTION                     <
>                                                          <
>>>>>>>>>>>>>>>>>>>>>>>>>>>> KEY <<<<<<<<<<<<<<<<<<<<<<<<<<<




USA.gov is the U.S. government's official web portal to all federal, state and local government web resources and services.